Главная страница
METAR-TAF:

METAR-TAF

Аэропорты :

Grant County Airport

Петербург, Западная Виргиния, США

широта: 38-59N, долгота: 079-08W, высота над уровнем моря: 293 м

Текущие метеонаблюдения

Эта сводка был подготовлена 34 минут назад, в 11:15 UTC
Штиль
Температура 16°C
Влажность 100%
Давление 1017 hPa
Видимость: 1.2 км
дымка

METAR: KW99 171115Z AUTO 00000KT 3/4SM BR VV005 16/16 A3004 RMK AO2 T01610161

Время: 07:49 (11:49 UTC)


TAF: отсутствует

Метеонаблюдения и прогнозы для более 4000 аэропортов (сводки METAR и TAF).

Имеющиеся станции представлены на карте желтыми и красными точками.

Чтобы увидеть название станции, наведите на нее мышь.

Затем щелкните, чтобы увидеть метеонаблюдения и метеопрогнозы.

Управление картой: чтобы увеличить масштаб, щелкните зеленые кнопки с черным крестиком; чтобы уменьшить масштаб, щелкните зеленую кнопку с тире; для просмотра соседних карт щелкайте зеленые стрелки.


METAR-TAF: